Terug naar catalogus

FENGYUN 1C DEB

ActiefSSO
NORAD 30849·DEBRIS·🇨🇳 China

Gelanceerd May 10, 1999 vanaf Taiyuan Satellite Launch Center

Loading…

Volgende Passages (komende 24 uur)

TLE

VersSource: Space-Track

Epoch: Sep 12, 2026, 16:36 UTC

1 30849U 99025AWK 26255.69175648  .00001456  00000-0  69628-3 0  9995
2 30849  99.0294 326.2673 0046759 304.4107 207.8494 14.20175676  2531

Volg FENGYUN 1C DEB in realtime met AllMySat

Download on the App Store